Williamsport, PA

6:59 AM EDT on October 22, 2017 (GMT -0400)
Williamsport Rgnl

Weather History for KIPT - March, 2013

Change the Weather History Date:

Thursday, March 21, 2013

  Actual Average Record
Temperature  
Mean Temperature 27 °F 40 °F  
Max Temperature 35 °F 50 °F 76 °F (1938)
Min Temperature 19 °F 30 °F 8 °F (1965)
Degree Days  
Heating Degree Days 38 25  
Month to date heating degree days 609 601  
Since 1 July heating degree days 4775 5068  
Cooling Degree Days 0 0  
Month to date cooling degree days 0 0  
Year to date cooling degree days 0 0  
Moisture  
Dew Point 11 °F    
Average Humidity 55    
Maximum Humidity 73    
Minimum Humidity 36    
Precipitation  
Precipitation T in 0.11 in 1.93 in (1980)
Month to date precipitation 1.16 1.91  
Year to date precipitation 5.62 6.95  
Snow  
Snow T in 0.20 in 11.50 in (1912)
Month to date snowfall 5.4 5.5  
Since 1 July snowfall 32.5 33.5  
Snow Depth 0.00 in    
Sea Level Pressure  
Sea Level Pressure 29.79 in    
Wind  
Wind Speed 9 mph (West)    
Max Wind Speed 18 mph    
Max Gust Speed 24 mph    
Visibility 10 miles    
Events      
T = Trace of Precipitation, MM = Missing Value Source: NWS Daily Summary

Daily Weather History Graph

Daily Weather History Graph

Search for Another Location

Airport or City:

Trip Planner

Search our weather history database for the weather conditions in past years. The results will help you decide how hot, cold, wet, or windy it might be!

Date:

Astronomy

Mar. 21, 2013 Rise Set
Actual Time 7:08 AM EDT 7:21 PM EDT
Civil Twilight 6:41 AM EDT 7:48 PM EDT
Nautical Twilight 6:09 AM EDT 8:21 PM EDT
Astronomical Twilight 5:36 AM EDT 8:54 PM EDT
Moon 1:46 PM EDT (3/21) 3:32 AM EDT (3/21)
Length of Visible Light 13h 07m
Length of Day
12h 12m
Waxing Gibbous, 68% of the Moon is Illuminated
Mar 21
Waxing Gibbous
Mar 27
Full
Apr 3
Last Quarter
Apr 10
New
Apr 18
First Quarter

Hourly Weather History & Observations

Time (EDT) Temp. Windchill Dew Point Humidity Pressure Visibility Wind Dir Wind Speed Gust Speed Precip Events Conditions
12:54 AM 28.9 °F 25.2 °F 18.0 °F 64% 29.86 in 10.0 mi WNW 3.5 mph - N/A   Overcast
1:54 AM 28.4 °F 23.3 °F 12.2 °F 51% 29.84 in 10.0 mi NNW 4.6 mph - N/A   Overcast
2:54 AM 26.1 °F 19.4 °F 12.0 °F 55% 29.84 in 10.0 mi WNW 5.8 mph - N/A   Clear
3:54 AM 26.1 °F 20.5 °F 10.0 °F 51% 29.81 in 10.0 mi WNW 4.6 mph - N/A   Clear
4:54 AM 23.0 °F - 12.0 °F 63% 29.81 in 10.0 mi Calm Calm - N/A   Clear
5:54 AM 23.0 °F - 10.9 °F 60% 29.81 in 10.0 mi Calm Calm - N/A   Clear
6:54 AM 19.9 °F - 12.0 °F 71% 29.82 in 10.0 mi Calm Calm - N/A   Clear
7:54 AM 21.0 °F - 12.9 °F 71% 29.82 in 10.0 mi Calm Calm - N/A   Clear
8:54 AM 25.0 °F - 15.1 °F 66% 29.82 in 10.0 mi Calm Calm - N/A   Clear
9:54 AM 28.0 °F 19.3 °F 14.0 °F 56% 29.81 in 10.0 mi West 9.2 mph - N/A   Partly Cloudy
10:54 AM 30.9 °F 22.8 °F 12.9 °F 47% 29.80 in 10.0 mi WSW 9.2 mph - N/A   Scattered Clouds
11:54 AM 33.1 °F 23.0 °F 10.9 °F 40% 29.78 in 10.0 mi West 15.0 mph 18.4 mph N/A   Overcast
12:54 PM 32.0 °F 22.5 °F 9.0 °F 38% 29.78 in 10.0 mi WSW 12.7 mph - 0.00 in   Mostly Cloudy
1:54 PM 33.1 °F 24.9 °F 12.9 °F 43% 29.76 in 10.0 mi SW 10.4 mph - N/A   Mostly Cloudy
2:54 PM 30.9 °F 22.2 °F 8.1 °F 38% 29.75 in 10.0 mi NW 10.4 mph 19.6 mph N/A   Mostly Cloudy
3:54 PM 30.9 °F 20.2 °F 9.0 °F 40% 29.74 in 10.0 mi WNW 15.0 mph 20.7 mph N/A   Overcast
4:11 PM 30.2 °F 20.8 °F 10.4 °F 44% 29.72 in 10.0 mi WNW 11.5 mph - N/A   Overcast
4:54 PM 30.9 °F 21.7 °F 8.1 °F 38% 29.74 in 10.0 mi West 11.5 mph 17.3 mph N/A   Mostly Cloudy
5:54 PM 30.9 °F 20.7 °F 6.1 °F 35% 29.75 in 10.0 mi WNW 13.8 mph - N/A   Mostly Cloudy
6:54 PM 30.0 °F 20.5 °F 6.1 °F 36% 29.77 in 10.0 mi WNW 11.5 mph - N/A   Mostly Cloudy
7:54 PM 28.9 °F 19.2 °F 7.0 °F 40% 29.78 in 10.0 mi WNW 11.5 mph - N/A   Mostly Cloudy
8:54 PM 30.0 °F 21.1 °F 10.0 °F 43% 29.80 in 10.0 mi West 10.4 mph - N/A   Overcast
9:54 PM 28.0 °F 18.6 °F 12.9 °F 53% 29.80 in 10.0 mi West 10.4 mph - N/A   Mostly Cloudy
10:54 PM 28.0 °F 18.1 °F 16.0 °F 61% 29.80 in 10.0 mi West 11.5 mph - N/A   Mostly Cloudy
11:54 PM 27.0 °F 15.6 °F 16.0 °F 63% 29.80 in 10.0 mi West 13.8 mph - N/A   Scattered Clouds